Location: Drocourt
(49.0571°N, 1.7669°E)
Time: 14:40:31
(UTC+00:00)

Vanguard 2 Rocket - Pass Details

Date: 17 April 2024
Orbit: 556 x 3304 km, 32.9° (Epoch: 22 May)

Event Time Altitude Azimuth Distance (km) Brightness Sun altitude
Rises 20:23:16 0° 205° (SSW) 6,296 11.1 -14.6°
Reaches altitude 10° 20:28:04 10° 194° (SSW) 5,625 10.7 -15.2°
Maximum altitude 20:41:53 28° 144° (SE) 4,840 10.0 -16.9°
Drops below altitude 10° 20:56:47 10° 96° (E) 6,123 10.6 -18.7°
Sets 21:02:15 0° 86° (E) 6,934 11.0 -19.4°
